• In Netherlands
  • List of Countries
  • For 7 days
  • Water Temperature
  • Satellite Maps
  • Weather Map
  • Weather Widgets
  • user-avatar
    Login

    Hourly Weather La Massana

    Today, 26 May, Friday

    Time Temperature Precipitation Wind Pressure Humidity
    00:00 +9°C° 0 mm 1 mps 611 mmHg 77%
    01:00 +9°C° 0 mm 1 mps 610 mmHg 77%
    02:00 +8°C° 0 mm 1 mps 610 mmHg 77%
    03:00 +8°C° 0 mm 1 mps 610 mmHg 76%
    04:00 +10°C° 0 mm 1 mps 611 mmHg 73%
    05:00 +11°C° 0 mm 1 mps 611 mmHg 71%
    06:00 +12°C° 0 mm 1 mps 612 mmHg 68%
    07:00 +14°C° 0 mm 1 mps 613 mmHg 59%
    08:00 +16°C° 0 mm 2 mps 614 mmHg 50%
    09:00 +19°C° 0 mm 2 mps 615 mmHg 42%
    10:00 +19°C° 0.1 mm 2 mps 615 mmHg 41%
    11:00 +20°C° 0.1 mm 2 mps 615 mmHg 40%
    12:00 +21°C° 0.1 mm 3 mps 616 mmHg 40%
    13:00 +21°C° 0.2 mm 3 mps 615 mmHg 40%
    14:00 +20°C° 0.2 mm 3 mps 615 mmHg 41%
    15:00 +20°C° 0.2 mm 3 mps 615 mmHg 42%
    16:00 +19°C° 0.1 mm 3 mps 614 mmHg 48%
    17:00 +18°C° 0.1 mm 2 mps 614 mmHg 54%
    18:00 +16°C° 0.1 mm 2 mps 613 mmHg 61%
    19:00 +14°C° 0.1 mm 2 mps 613 mmHg 67%
    20:00 +12°C° 0.1 mm 2 mps 612 mmHg 73%
    21:00 +9°C° 0.1 mm 2 mps 611 mmHg 80%
    22:00 +9°C° 0.1 mm 1 mps 611 mmHg 80%
    23:00 +9°C° 0.1 mm 1 mps 611 mmHg 80%

    Tomorrow, 27 May, Saturday

    Time Temperature Precipitation Wind Pressure Humidity
    00:00 +9°C° 0.1 mm 1 mps 611 mmHg 80%
    01:00 +8°C° 0 mm 1 mps 611 mmHg 80%
    02:00 +8°C° 0 mm 1 mps 611 mmHg 80%
    03:00 +7°C° 0 mm 1 mps 611 mmHg 80%
    04:00 +9°C° 0 mm 1 mps 612 mmHg 76%
    05:00 +10°C° 0 mm 1 mps 612 mmHg 73%
    06:00 +12°C° 0 mm 1 mps 613 mmHg 69%
    07:00 +14°C° 0 mm 1 mps 614 mmHg 61%
    08:00 +16°C° 0 mm 1 mps 615 mmHg 53%
    09:00 +18°C° 0 mm 2 mps 616 mmHg 45%
    10:00 +19°C° 0 mm 2 mps 617 mmHg 44%
    11:00 +20°C° 0 mm 3 mps 617 mmHg 42%
    12:00 +21°C° 0 mm 3 mps 617 mmHg 41%
    13:00 +21°C° 0.1 mm 3 mps 617 mmHg 43%
    14:00 +21°C° 0.1 mm 3 mps 617 mmHg 44%
    15:00 +20°C° 0.1 mm 3 mps 617 mmHg 46%
    16:00 +19°C° 0.1 mm 3 mps 616 mmHg 52%
    17:00 +18°C° 0.1 mm 2 mps 616 mmHg 58%
    18:00 +17°C° 0.1 mm 2 mps 615 mmHg 64%
    19:00 +14°C° 0.4 mm 2 mps 615 mmHg 71%
    20:00 +12°C° 0.4 mm 2 mps 614 mmHg 78%
    21:00 +10°C° 0.4 mm 1 mps 613 mmHg 85%
    22:00 +10°C° 0.1 mm 1 mps 613 mmHg 85%
    23:00 +9°C° 0.1 mm 1 mps 613 mmHg 85%

    Day after tomorrow, 28 May, Sunday

    Time Temperature Precipitation Wind Pressure Humidity
    00:00 +9°C° 0.1 mm 1 mps 613 mmHg 85%
    01:00 +9°C° 0 mm 1 mps 613 mmHg 84%
    02:00 +8°C° 0 mm 1 mps 613 mmHg 83%
    03:00 +8°C° 0 mm 1 mps 612 mmHg 82%
    04:00 +9°C° 0 mm 1 mps 613 mmHg 78%
    05:00 +11°C° 0 mm 1 mps 614 mmHg 73%
    06:00 +12°C° 0 mm 1 mps 614 mmHg 68%
    07:00 +14°C° 0 mm 2 mps 615 mmHg 59%
    08:00 +16°C° 0 mm 2 mps 616 mmHg 50%
    09:00 +19°C° 0 mm 2 mps 617 mmHg 41%
    10:00 +20°C° 0 mm 3 mps 618 mmHg 39%
    11:00 +21°C° 0 mm 3 mps 618 mmHg 36%
    12:00 +22°C° 0 mm 3 mps 618 mmHg 34%
    13:00 +22°C° 0 mm 3 mps 618 mmHg 35%
    14:00 +21°C° 0 mm 3 mps 618 mmHg 36%
    15:00 +21°C° 0 mm 4 mps 617 mmHg 36%
    16:00 +20°C° 0 mm 3 mps 617 mmHg 42%
    17:00 +18°C° 0 mm 3 mps 616 mmHg 48%
    18:00 +17°C° 0 mm 2 mps 616 mmHg 54%
    19:00 +15°C° 0 mm 2 mps 615 mmHg 60%
    20:00 +12°C° 0 mm 2 mps 614 mmHg 66%
    21:00 +9°C° 0 mm 2 mps 613 mmHg 73%
    22:00 +9°C° 0 mm 2 mps 613 mmHg 72%
    23:00 +8°C° 0 mm 2 mps 613 mmHg 72%

    29 May, Monday

    Time Temperature Precipitation Wind Pressure Humidity
    00:00 +8°C° 0 mm 2 mps 613 mmHg 71%
    01:00 +8°C° 0 mm 2 mps 612 mmHg 69%
    02:00 +7°C° 0 mm 2 mps 612 mmHg 67%
    03:00 +7°C° 0 mm 2 mps 612 mmHg 65%
    04:00 +8°C° 0 mm 2 mps 612 mmHg 62%
    05:00 +9°C° 0 mm 2 mps 613 mmHg 59%
    06:00 +10°C° 0 mm 2 mps 613 mmHg 56%
    07:00 +13°C° 0 mm 2 mps 614 mmHg 49%
    08:00 +15°C° 0 mm 2 mps 615 mmHg 43%
    09:00 +17°C° 0 mm 3 mps 616 mmHg 37%
    10:00 +18°C° 0 mm 3 mps 616 mmHg 35%
    11:00 +19°C° 0 mm 3 mps 616 mmHg 34%
    12:00 +20°C° 0 mm 3 mps 617 mmHg 32%
    13:00 +19°C° 0 mm 3 mps 616 mmHg 34%
    14:00 +19°C° 0 mm 3 mps 616 mmHg 36%
    15:00 +18°C° 0 mm 3 mps 615 mmHg 38%
    16:00 +17°C° 0 mm 3 mps 615 mmHg 45%
    17:00 +16°C° 0 mm 2 mps 614 mmHg 51%
    18:00 +15°C° 0 mm 2 mps 614 mmHg 57%
    19:00 +13°C° 0 mm 2 mps 613 mmHg 62%
    20:00 +11°C° 0 mm 1 mps 613 mmHg 68%
    21:00 +9°C° 0 mm 1 mps 612 mmHg 73%
    22:00 +8°C° 0 mm 1 mps 612 mmHg 77%
    23:00 +7°C° 0 mm 1 mps 611 mmHg 82%

    30 May, Tuesday

    Time Temperature Precipitation Wind Pressure Humidity
    00:00 +5°C° 0 mm 0 mps 611 mmHg 86%
    01:00 +6°C° 0 mm 1 mps 611 mmHg 84%
    02:00 +7°C° 0 mm 1 mps 611 mmHg 81%
    03:00 +7°C° 0 mm 1 mps 611 mmHg 78%
    04:00 +8°C° 0 mm 1 mps 612 mmHg 75%
    05:00 +9°C° 0 mm 1 mps 612 mmHg 72%
    06:00 +10°C° 0 mm 1 mps 613 mmHg 69%
    07:00 +10°C° 0.3 mm 1 mps 613 mmHg 68%
    08:00 +11°C° 0.3 mm 1 mps 614 mmHg 66%
    09:00 +11°C° 0.3 mm 1 mps 614 mmHg 65%
    10:00 +12°C° 0.3 mm 1 mps 614 mmHg 63%
    11:00 +12°C° 0.3 mm 1 mps 614 mmHg 61%
    12:00 +13°C° 0.3 mm 2 mps 614 mmHg 60%
    13:00 +13°C° 0.1 mm 2 mps 614 mmHg 59%
    14:00 +13°C° 0.1 mm 2 mps 614 mmHg 58%
    15:00 +13°C° 0.1 mm 2 mps 614 mmHg 57%
    16:00 +13°C° 0.1 mm 2 mps 614 mmHg 61%
    17:00 +12°C° 0.1 mm 1 mps 614 mmHg 65%
    18:00 +12°C° 0.1 mm 1 mps 614 mmHg 69%
    19:00 +10°C° 0.1 mm 1 mps 613 mmHg 74%
    20:00 +9°C° 0.1 mm 1 mps 613 mmHg 79%
    21:00 +6°C° 0.1 mm 0 mps 612 mmHg 84%
    22:00 +6°C° 0.1 mm 0 mps 612 mmHg 86%
    23:00 +7°C° 0.1 mm 1 mps 612 mmHg 88%

    31 May, Wednesday

    Time Temperature Precipitation Wind Pressure Humidity
    00:00 +7°C° 0.1 mm 1 mps 612 mmHg 90%
    01:00 +7°C° 0.1 mm 1 mps 612 mmHg 90%
    02:00 +7°C° 0.1 mm 1 mps 612 mmHg 90%
    03:00 +7°C° 0.1 mm 1 mps 612 mmHg 90%
    04:00 +7°C° 0 mm 1 mps 612 mmHg 88%
    05:00 +7°C° 0 mm 0 mps 613 mmHg 85%
    06:00 +8°C° 0 mm 0 mps 613 mmHg 83%
    07:00 +11°C° 0 mm 1 mps 614 mmHg 74%
    08:00 +12°C° 0 mm 1 mps 615 mmHg 66%
    09:00 +14°C° 0 mm 2 mps 615 mmHg 58%
    10:00 +14°C° 0.2 mm 2 mps 616 mmHg 56%
    11:00 +15°C° 0.2 mm 2 mps 616 mmHg 53%
    12:00 +16°C° 0.2 mm 2 mps 616 mmHg 51%
    13:00 +16°C° 0.3 mm 2 mps 616 mmHg 52%
    14:00 +16°C° 0.3 mm 2 mps 615 mmHg 52%
    15:00 +16°C° 0.3 mm 2 mps 615 mmHg 53%
    16:00 +15°C° 0.3 mm 2 mps 615 mmHg 57%
    17:00 +14°C° 0.3 mm 2 mps 615 mmHg 62%
    18:00 +14°C° 0.3 mm 1 mps 614 mmHg 66%
    19:00 +11°C° 0.1 mm 1 mps 614 mmHg 74%
    20:00 +9°C° 0.1 mm 1 mps 613 mmHg 82%
    21:00 +7°C° 0.1 mm 1 mps 612 mmHg 90%
    22:00 +5°C° 0 mm 0 mps 612 mmHg 90%
    23:00 +5°C° 0 mm 0 mps 611 mmHg 91%
    Show more